sim
Sign-in with your pilot id or email,
or register
Callsign
Passwort

Schedule Details

Flight Number: RYR9422 (2)
Departure: Pisa Galileo Galilei Airport (LIRP) at 12:50
Arrival: Fuerteventura Airport (GCFV) at 17:05
Route: Ryanair Passenger Schedule. Enter filed route here before submitting Pirep.

Weather Information
Getting current METAR information for LIRP 212145Z 20002KT CAVOK 13/10 Q1015 NOSIG
Getting current METAR information for GCFV 212200Z AUTO 34012KT 9999 BKN026 19/14 Q1015

Schedule Frequency

Route Map